Live-Position
3D-Globus wird geladen...
Über OneWeb SL0297
Group: 3 satellites
Beschreibung wird geladen...
Nächste Überflüge
Passes for default location (London). Set your location on the main map for personalized predictions.
Höhenverlauf
Loading altitude history...
No altitude history available
Zweizeiliger Elementsatz
1 49086U 21075M 26123.66566296 -.00000099 00000-0 -31029-3 0 9990
2 49086 87.8977 359.5305 0001699 85.3553 274.7769 13.12443170229347
Epoch: 3. Mai 2026 •
Age: 17 hours
Aktueller Status
Höhe 1216.2 km
Geschwindigkeit 7.25 km/s
Subsatellitenpunkt 4.20°N,
176.92°E
Startdatum 21. Aug. 2021
Alter 4.7 years
Typ internet
Startgruppe
Unknown Vehicle •
OneWeb Launch 9 •
34 satellites
OneWeb SL0285
49075
OneWeb SL0286 49076
OneWeb SL0287 49077
OneWeb SL0288 49078
OneWeb SL0289 49079
OneWeb SL0290 49080
OneWeb SL0291 49081
OneWeb SL0293 49082
OneWeb SL0294 49083
OneWeb SL0295 49084
OneWeb SL0296 49085
OneWeb SL0298 49087
OneWeb SL0299 49088
OneWeb SL0300 49089
OneWeb SL0301 49090
OneWeb SL0302 49091
OneWeb SL0304 49092
OneWeb SL0305 49093
OneWeb SL0308 49094
OneWeb SL0309 49095
...and 13 more
Technische Details
Klassifizierung Payload
Masse 148.00 kg
Trockenmasse 140.00 kg
Gesamtmasse 148.00 kg
Länge 1.30 m
Durchmesser 1.00 m
Spannweite 5.00 m
Form Trapezoid+2 pan
Hersteller ONEWUS
Bus-Typ ARROW
Phasenstatus In Orbit
Besitzer/Staat ONEWEBN/UK
Most Searched
Loading...